Weather History for LHKE - December, 2013

Change the Weather History Date:

Tuesday, December 17, 2013

  Actual Average (LHBP) Record (LHBP)
Temperature  
Mean Temperature 32 °F -  
Max Temperature 34 °F 34 °F 48 °F (2014)
Min Temperature 30 °F 23 °F 5 °F (2001)
Degree Days  
Heating Degree Days 33    
Moisture  
Dew Point 30 °F    
Average Humidity 88    
Maximum Humidity 94    
Minimum Humidity 75    
Precipitation  
Precipitation 0.00 in - - ()
Sea Level Pressure  
Sea Level Pressure 30.64 in    
Wind  
Wind Speed 5 mph ()    
Max Wind Speed 9 mph    
Max Gust Speed -    
Visibility 2.2 miles    
Events Fog    
Averages and records for this station are not official NWS values.
T = Trace of Precipitation, MM = Missing Value Source: Averaged Metar Reports

Daily Weather History Graph

Daily Weather History Graph

Search for Another Location

Airport or City:

Trip Planner

Search our weather history database for the weather conditions in past years. The results will help you decide how hot, cold, wet, or windy it might be!

Date:

Astronomy

Dec. 17, 2013 Rise Set
Actual Time 7:21 AM CET 3:53 PM CET
Civil Twilight 6:45 AM CET 4:28 PM CET
Nautical Twilight 6:06 AM CET 5:07 PM CET
Astronomical Twilight 5:29 AM CET 5:44 PM CET
Moon 4:21 PM CET (12/17) 6:59 AM CET (12/17)
Length of Visible Light 9h 42m
Length of Day
8h 31m
Full, 100% of the Moon is Illuminated
Dec 17
Full
Dec 25
Last Quarter
Jan 1
New
Jan 8
First Quarter
Jan 16
Full

Hourly Weather History & Observations

Time (CET) Temp. Windchill Dew Point Humidity Pressure Visibility Wind Dir Wind Speed Gust Speed Precip Events Conditions
12:00 AM 34 °F - 32 °F 88% 30.71 in 2 mi SW 4.5 mph - -   Mist
12:15 AM 33.8 °F 29.7 °F 32.0 °F 93% 30.69 in 1.2 mi SSW 4.5 mph - N/A   Overcast
12:45 AM 33.8 °F 27.9 °F 32.0 °F 93% 30.69 in 1.2 mi SSW 6.7 mph - N/A   Overcast
1:00 AM 30 °F - 28 °F 89% 30.57 in 2 mi SE 4.5 mph - -   Mist
1:15 AM 33.8 °F 27.9 °F 32.0 °F 93% 30.69 in 1.6 mi SSW 6.7 mph - N/A   Overcast
1:45 AM 33.8 °F 26.5 °F 32.0 °F 93% 30.69 in 1.6 mi SSE 8.9 mph - N/A   Overcast
2:00 AM 33 °F - 31 °F 92% 30.71 in 2 mi SSE 8.9 mph - -   Mist
2:15 AM 33.8 °F 29.7 °F 30.2 °F 87% 30.69 in 1.6 mi SSE 4.5 mph - N/A   Overcast
2:45 AM 33.8 °F 29.7 °F 30.2 °F 87% 30.69 in 1.6 mi South 4.5 mph - N/A   Overcast
3:00 AM 33 °F - 31 °F 89% 30.71 in 2 mi South 4.5 mph - -   Mist
3:15 AM 33.8 °F 29.7 °F 30.2 °F 87% 30.66 in 1.6 mi South 4.5 mph - N/A   Overcast
3:45 AM 32.0 °F 27.6 °F 30.2 °F 93% 30.66 in 1.6 mi South 4.5 mph - N/A   Overcast
4:00 AM 33 °F - 31 °F 88% 30.71 in 2 mi South 4.5 mph - -   Mist
4:15 AM 32.0 °F 27.6 °F 30.2 °F 93% 30.66 in 1.2 mi South 4.5 mph - N/A   Overcast
4:45 AM 32.0 °F 27.6 °F 30.2 °F 93% 30.66 in 1.2 mi South 4.5 mph - N/A   Overcast
5:00 AM 32 °F - 31 °F 92% 30.70 in 1 mi South 4.5 mph - -   Mist
5:15 AM 32.0 °F 27.6 °F 30.2 °F 93% 30.66 in 1.6 mi South 4.5 mph - N/A   Overcast
5:45 AM - - - N/A% - 1.9 mi South 4.5 mph - N/A   Overcast
6:00 AM 32 °F - 30 °F 91% 30.70 in 1 mi South 4.5 mph - -   Mist
6:15 AM 32.0 °F 27.6 °F 30.2 °F 93% 30.66 in 1.2 mi South 4.5 mph - N/A   Overcast
6:45 AM 32.0 °F 27.6 °F 30.2 °F 93% 30.69 in 1.2 mi South 4.5 mph - N/A   Overcast
7:00 AM 32 °F - 30 °F 89% 30.71 in 1 mi South 4.5 mph - -   Mist
7:05 AM 30.2 °F 25.5 °F 28.4 °F 93% 30.69 in 0.9 mi SSE 4.5 mph - N/A   Overcast
7:15 AM 32.0 °F 27.6 °F 30.2 °F 93% 30.69 in 0.6 mi South 4.5 mph - N/A Fog Fog
7:24 AM 32.0 °F 27.6 °F 30.2 °F 93% 30.69 in 0.5 mi South 4.5 mph - N/A Fog Fog
7:45 AM 32.0 °F 27.6 °F 30.2 °F 93% 30.66 in 0.5 mi South 4.5 mph - N/A Fog Fog
8:00 AM 31 °F - 30 °F 94% 30.71 in 0 mi South 4.5 mph - - Fog Partial Fog
8:15 AM 32.0 °F 27.6 °F 30.2 °F 93% 30.69 in 0.7 mi SSE 4.5 mph - N/A   Overcast
8:38 AM 32.0 °F 27.6 °F 30.2 °F 93% 30.69 in 0.9 mi SSE 4.5 mph - N/A   Overcast
8:45 AM - - - N/A% - 0.9 mi South 4.5 mph - N/A   Overcast
9:00 AM 32 °F - 30 °F 90% 30.71 in 1 mi SSE 4.5 mph - - Fog Light Fog
9:15 AM 32.0 °F 27.6 °F 30.2 °F 93% 30.69 in 0.9 mi SSE 4.5 mph - N/A   Overcast
9:45 AM 33.8 °F 29.7 °F 30.2 °F 87% 30.69 in 1.6 mi SSE 4.5 mph - N/A   Overcast
10:00 AM 33 °F - 30 °F 86% 30.71 in 2 mi SSE 4.5 mph - -   Mist
10:00 AM 33.8 °F 29.7 °F 30.2 °F 87% 30.69 in 1.9 mi SSE 4.5 mph - N/A   Overcast
10:15 AM 33.8 °F 29.7 °F 30.2 °F 87% 30.69 in 1.9 mi SSE 4.5 mph - N/A   Overcast
10:45 AM 33.8 °F 29.7 °F 30.2 °F 87% 30.66 in 1.9 mi SSE 4.5 mph - N/A   Overcast
11:00 AM 34 °F - 30 °F 81% 30.69 in 2 mi SSE 4.5 mph - -   Mist
11:15 AM 33.8 °F 27.9 °F 30.2 °F 87% 30.66 in 2.5 mi SSE 6.7 mph - N/A   Overcast
11:45 AM - - - N/A% - 0.9 mi SE 4.5 mph - N/A   Overcast
12:00 PM 34 °F - 29 °F 75% 30.68 in 3 mi SSE 6.7 mph - -   Mist
12:15 PM 33.8 °F 27.9 °F 28.4 °F 81% 30.63 in 3.7 mi South 6.7 mph - N/A   Overcast
12:45 PM 33.8 °F 27.9 °F 30.2 °F 87% 30.63 in 3.7 mi SE 6.7 mph - N/A   Overcast
1:00 PM 34 °F - 29 °F 76% 30.66 in 4 mi SE 6.7 mph - -   Partly Cloudy
1:15 PM 33.8 °F 26.5 °F 30.2 °F 87% 30.63 in 3.7 mi ESE 8.9 mph - N/A   Overcast
1:45 PM 33.8 °F 27.9 °F 30.2 °F 87% 30.60 in 3.7 mi SE 6.7 mph - N/A   Overcast
2:00 PM 34 °F - 29 °F 77% 30.65 in 4 mi SE 6.7 mph - -   Overcast
2:15 PM 33.8 °F 27.9 °F 30.2 °F 87% 30.60 in 3.7 mi SE 6.7 mph - N/A   Overcast
2:45 PM - - - N/A% - 3.1 mi SE 4.5 mph - N/A   Overcast
3:00 PM 34 °F - 30 °F 78% 30.64 in 4 mi SSE 6.7 mph - -   Overcast
3:15 PM 33.8 °F 27.9 °F 30.2 °F 87% 30.60 in 3.7 mi SSE 6.7 mph - N/A   Overcast
3:45 PM 33.8 °F 29.7 °F 28.4 °F 81% 30.60 in 3.7 mi SSE 4.5 mph - N/A   Overcast
4:00 PM 33 °F - 29 °F 81% 30.63 in 4 mi SSE 4.5 mph - -   Overcast
4:15 PM 33.8 °F 27.9 °F 28.4 °F 81% 30.60 in 3.7 mi SSE 6.7 mph - N/A   Overcast
4:45 PM 32.0 °F 25.7 °F 28.4 °F 87% 30.60 in 3.7 mi SE 6.7 mph - N/A   Overcast
5:00 PM 33 °F - 29 °F 79% 30.63 in 4 mi SE 6.7 mph - -   Overcast
5:15 PM 32.0 °F 25.7 °F 28.4 °F 87% 30.60 in 3.7 mi SE 6.7 mph - N/A   Overcast
5:36 PM 32.0 °F 27.6 °F 28.4 °F 87% 30.57 in 3.1 mi SSE 4.5 mph - N/A   Overcast
5:45 PM - - - N/A% - 3.7 mi SE 4.5 mph - N/A   Overcast
6:00 PM 33 °F - 29 °F 80% 30.62 in 3 mi SSE 4.5 mph - -   Mist
6:15 PM 32.0 °F 25.7 °F 30.2 °F 93% 30.60 in 3.1 mi SE 6.7 mph - N/A   Overcast
6:45 PM 32.0 °F 27.6 °F 28.4 °F 87% 30.57 in 3.1 mi SE 4.5 mph - N/A   Overcast
7:00 PM 32 °F - 29 °F 85% 30.62 in 3 mi SE 4.5 mph - -   Mist
7:15 PM 32.0 °F 27.6 °F 28.4 °F 87% 30.57 in 3.1 mi SSE 4.5 mph - N/A   Overcast
7:45 PM 32.0 °F 27.6 °F 28.4 °F 87% 30.57 in 3.1 mi SE 4.5 mph - N/A   Overcast
8:00 PM 31 °F - 29 °F 87% 30.61 in 3 mi SE 4.5 mph - -   Mist
8:15 PM 32.0 °F 27.6 °F 28.4 °F 87% 30.57 in 3.1 mi SE 4.5 mph - N/A   Overcast
8:45 PM - - - N/A% - 3.1 mi ESE 4.5 mph - N/A   Overcast
9:00 PM 31 °F - 29 °F 87% 30.61 in 3 mi SE 4.5 mph - -   Mist
9:15 PM 30.2 °F 25.5 °F 28.4 °F 93% 30.57 in 2.5 mi SSE 4.5 mph - N/A   Overcast
9:45 PM 30.2 °F 25.5 °F 28.4 °F 93% 30.57 in 2.5 mi SSE 4.5 mph - N/A   Overcast
10:00 PM 31 °F - 28 °F 86% 30.60 in 2 mi SSE 4.5 mph - -   Mist
10:15 PM 30.2 °F 23.5 °F 28.4 °F 93% 30.54 in 2.5 mi SE 6.7 mph - N/A   Overcast
10:45 PM 30.2 °F 25.5 °F 28.4 °F 93% 30.54 in 2.2 mi SE 4.5 mph - N/A   Overcast
11:00 PM 31 °F - 28 °F 85% 30.59 in 2 mi SE 4.5 mph - -   Mist
11:15 PM 30.2 °F 23.5 °F 28.4 °F 93% 30.54 in 2.2 mi SE 6.7 mph - N/A   Overcast
11:31 PM 30.2 °F 25.5 °F 28.4 °F 93% 30.54 in 1.9 mi SE 4.5 mph - N/A   Overcast
11:45 PM - - - N/A% - 1.9 mi North - - N/A   Overcast